TimeCST,TemperatureF,Dew PointF,Humidity,Sea Level PressureIn,VisibilityMPH,Wind Direction,Wind SpeedMPH,Gust SpeedMPH,PrecipitationIn,Events,Conditions,WindDirDegrees,DateUTC
12:53 AM,27.0,21.9,81,30.18,10.0,SSW,4.6,-,N/A,,Overcast,210,2011-11-28 06:53:00
1:53 AM,27.0,21.9,81,30.18,10.0,SW,4.6,-,N/A,,Overcast,220,2011-11-28 07:53:00
2:53 AM,27.0,21.9,81,30.17,10.0,SSW,6.9,-,N/A,,Overcast,200,2011-11-28 08:53:00
3:53 AM,26.1,21.9,84,30.15,10.0,SW,8.1,-,N/A,,Overcast,220,2011-11-28 09:53:00
4:53 AM,26.1,23.0,88,30.15,10.0,South,5.8,-,N/A,,Overcast,190,2011-11-28 10:53:00
5:53 AM,26.1,23.0,88,30.14,10.0,Variable,3.5,-,N/A,,Overcast,0,2011-11-28 11:53:00
6:53 AM,26.1,23.0,88,30.14,10.0,Variable,5.8,-,N/A,,Overcast,0,2011-11-28 12:53:00
7:53 AM,26.1,21.9,84,30.13,10.0,SW,9.2,-,N/A,,Overcast,220,2011-11-28 13:53:00
8:53 AM,27.0,23.0,85,30.12,10.0,Variable,5.8,-,N/A,,Overcast,0,2011-11-28 14:53:00
9:53 AM,27.0,23.0,85,30.09,10.0,SSW,9.2,17.3,N/A,,Overcast,210,2011-11-28 15:53:00
10:53 AM,28.9,24.1,82,30.10,10.0,SSW,8.1,19.6,N/A,,Overcast,210,2011-11-28 16:53:00
11:53 AM,30.0,24.1,79,30.08,10.0,SSW,8.1,16.1,N/A,,Overcast,200,2011-11-28 17:53:00
12:23 PM,30.2,24.8,80,30.00,10.0,South,9.2,19.6,N/A,,Scattered Clouds,180,2011-11-28 18:23:00
12:48 PM,32.0,24.8,75,30.00,10.0,South,11.5,16.1,N/A,,Mostly Cloudy,190,2011-11-28 18:48:00
12:53 PM,32.0,25.0,75,30.06,10.0,Variable,6.9,-,N/A,,Mostly Cloudy,0,2011-11-28 18:53:00
1:01 PM,32.0,24.8,75,30.01,10.0,SSW,9.2,18.4,N/A,,Scattered Clouds,200,2011-11-28 19:01:00
1:53 PM,32.0,24.1,73,30.04,10.0,South,8.1,-,N/A,,Clear,190,2011-11-28 19:53:00
2:53 PM,32.0,24.1,73,30.07,10.0,WSW,8.1,-,N/A,,Clear,240,2011-11-28 20:53:00
4:53 PM,30.9,25.0,79,30.11,10.0,Calm,Calm,-,N/A,,Clear,0,2011-11-28 22:53:00
5:53 PM,28.9,24.1,82,30.13,10.0,Calm,Calm,-,N/A,,Clear,0,2011-11-28 23:53:00
6:53 PM,27.0,24.1,89,30.14,9.0,Calm,Calm,-,N/A,,Clear,0,2011-11-29 00:53:00
7:53 PM,27.0,24.1,89,30.15,9.0,Calm,Calm,-,N/A,,Clear,0,2011-11-29 01:53:00
8:53 PM,26.1,23.0,88,30.17,10.0,Calm,Calm,-,N/A,,Clear,0,2011-11-29 02:53:00
9:53 PM,26.1,21.9,84,30.19,10.0,Calm,Calm,-,N/A,,Clear,0,2011-11-29 03:53:00
10:53 PM,30.9,26.1,82,30.22,10.0,Calm,Calm,-,N/A,,Clear,0,2011-11-29 04:53:00
11:53 PM,28.9,25.0,85,30.25,10.0,Variable,3.5,-,N/A,,Clear,0,2011-11-29 05:53:00